| time (UTC) | temp C | wind direction | speed KPH | gust KPH | rain 1hr cm | rain 24hr cm | rain mn cm | humidity % | barometer mb |
| 20260502184402 | 22 | 35 | 4.8 | 9.7 | 0.00 | 0.00 | 0.00 | 99 | 1028.0 |
| 20260502183859 | 22 | 0 | 8.0 | 9.7 | 0.00 | 0.00 | 0.00 | 99 | 1027.7 |
| 20260502183355 | 22 | 26 | 12.9 | 12.9 | 0.00 | 0.00 | 0.00 | 99 | 1027.9 |
| 20260502182851 | 22 | 349 | 3.2 | 11.3 | 0.00 | 0.00 | 0.00 | 99 | 1027.8 |
| 20260502182347 | 23 | 337 | 8.0 | 16.1 | 0.00 | 0.00 | 0.00 | 99 | 1028.2 |
| 20260502181843 | 22 | 6 | 6.4 | 9.7 | 0.00 | 0.00 | 0.00 | 99 | 1028.2 |
| 20260502181342 | 22 | 226 | 6.4 | 11.3 | 0.00 | 0.00 | 0.00 | 99 | 1028.1 |
| 20260502180839 | 22 | 353 | 3.2 | 9.7 | 0.00 | 0.00 | 0.00 | 99 | 1028.2 |
| 20260502180336 | 21 | 259 | 6.4 | 8.0 | 0.00 | 0.00 | 0.00 | 99 | 1028.2 |
| 20260502170255 | 21 | 140 | 3.2 | 8.0 | 0.00 | 0.00 | 0.00 | 99 | 1028.9 |
| 20260502164243 | 21 | 95 | 0.0 | 6.4 | 0.00 | 0.00 | 0.00 | 99 | 1028.9 |
| 20260502163738 | 21 | 86 | 4.8 | 6.4 | 0.00 | 0.00 | 0.00 | 99 | 1029.0 |
| 20260502163235 | 21 | 356 | 3.2 | 6.4 | 0.00 | 0.00 | 0.00 | 99 | 1028.9 |
| 20260502162732 | 21 | 96 | 3.2 | 3.2 | 0.00 | 0.00 | 0.00 | 99 | 1029.1 |
| 20260502162229 | 20 | 55 | 3.2 | 6.4 | 0.00 | 0.00 | 0.00 | 99 | 1028.8 |
| 20260502161726 | 20 | 266 | 8.0 | 9.7 | 0.00 | 0.00 | 0.00 | 99 | 1029.0 |
| 20260502161222 | 20 | 289 | 1.6 | 6.4 | 0.00 | 0.00 | 0.00 | 99 | 1029.0 |
| 20260502160721 | 20 | 39 | 8.0 | 8.0 | 0.00 | 0.00 | 0.00 | 99 | 1029.0 |
| 20260502160219 | 20 | 30 | 11.3 | 11.3 | 0.00 | 0.00 | 0.00 | 99 | 1029.0 |
| 20260502152143 | 19 | 60 | 1.6 | 9.7 | 0.00 | 0.00 | 0.00 | 99 | 1028.8 |
| 20260502151641 | 20 | 83 | 1.6 | 4.8 | 0.00 | 0.00 | 0.00 | 99 | 1028.8 |
| 20260502151137 | 20 | 90 | 0.0 | 3.2 | 0.00 | 0.00 | 0.00 | 99 | 1028.6 |
| 20260502150635 | 18 | 305 | 3.2 | 6.4 | 0.00 | 0.00 | 0.00 | 99 | 1028.5 |
| 20260502150131 | 18 | 65 | 3.2 | 9.7 | 0.00 | 0.00 | 0.00 | 99 | 1028.5 |
| 20260502130520 | 12 | 18 | 0.0 | 3.2 | 0.00 | 0.00 | 0.00 | 99 | 1027.8 |
| 20260502123503 | 11 | 334 | 0.0 | 0.0 | 0.00 | 0.00 | 0.00 | 99 | 1027.3 |
| 20260502122959 | 10 | 334 | 0.0 | 0.0 | 0.00 | 0.00 | 0.00 | 99 | 1027.2 |
| 20260502122455 | 10 | 331 | 3.2 | 3.2 | 0.00 | 0.00 | 0.00 | 99 | 1027.0 |
| 20260502121954 | 10 | 337 | 0.0 | 1.6 | 0.00 | 0.00 | 0.00 | 99 | 1027.0 |
| 20260502121451 | 10 | 0 | 0.0 | 1.6 | 0.00 | 0.00 | 0.00 | 99 | 1027.0 |
| 20260502120948 | 10 | 20 | 0.0 | 1.6 | 0.00 | 0.00 | 0.00 | 99 | 1026.9 |
| 20260502120444 | 9 | 35 | 1.6 | 3.2 | 0.00 | 0.00 | 0.00 | 99 | 1026.8 |
| 20260502115439 | 9 | 74 | 0.0 | 0.0 | 0.00 | 0.00 | 0.00 | 99 | 1026.5 |
| 20260502114935 | 10 | 74 | 0.0 | 0.0 | 0.00 | 0.00 | 0.00 | 99 | 1026.4 |
| 20260502114432 | 10 | 74 | 0.0 | 0.0 | 0.00 | 0.00 | 0.00 | 99 | 1026.3 |
| 20260502113929 | 10 | 74 | 0.0 | 0.0 | 0.00 | 0.00 | 0.00 | 99 | 1026.1 |
| 20260502113426 | 10 | 74 | 0.0 | 0.0 | 0.00 | 0.00 | 0.00 | 99 | 1026.1 |
| 20260502112925 | 10 | 74 | 0.0 | 0.0 | 0.00 | 0.00 | 0.00 | 99 | 1026.0 |
| 20260502112422 | 10 | 74 | 0.0 | 0.0 | 0.00 | 0.00 | 0.00 | 99 | 1026.1 |
| 20260502111920 | 11 | 0 | 0.0 | 1.6 | 0.00 | 0.00 | 0.00 | 99 | 1026.0 |
| 20260502111416 | 11 | 26 | 0.0 | 3.2 | 0.00 | 0.00 | 0.00 | 99 | 1026.2 |
| 20260502110914 | 11 | 12 | 1.6 | 3.2 | 0.00 | 0.00 | 0.00 | 99 | 1026.2 |
| 20260502110412 | 11 | 300 | 0.0 | 3.2 | 0.00 | 0.00 | 0.00 | 99 | 1026.1 |
| 20260502105909 | 11 | 325 | 1.6 | 4.8 | 0.00 | 0.00 | 0.00 | 99 | 1025.9 |
| 20260502105406 | 11 | 330 | 0.0 | 4.8 | 0.00 | 0.00 | 0.00 | 99 | 1025.9 |
| 20260502104904 | 11 | 330 | 3.2 | 6.4 | 0.00 | 0.00 | 0.00 | 99 | 1026.0 |
| 20260502104401 | 11 | 250 | 3.2 | 4.8 | 0.00 | 0.00 | 0.00 | 99 | 1025.9 |
| 20260502103858 | 10 | 311 | 0.0 | 3.2 | 0.00 | 0.00 | 0.00 | 99 | 1025.7 |
| 20260502103355 | 10 | 8 | 0.0 | 0.0 | 0.00 | 0.00 | 0.00 | 99 | 1025.4 |
| 20260502102852 | 10 | 337 | 0.0 | 0.0 | 0.00 | 0.00 | 0.00 | 99 | 1025.5 |
| 20260502102349 | 10 | 337 | 0.0 | 0.0 | 0.00 | 0.00 | 0.00 | 99 | 1025.4 |
| 20260502101846 | 11 | 337 | 0.0 | 0.0 | 0.00 | 0.00 | 0.00 | 99 | 1025.6 |
| 20260502101345 | 11 | 0 | 0.0 | 1.6 | 0.00 | 0.00 | 0.00 | 99 | 1025.0 |
| 20260502100843 | 11 | 0 | 0.0 | 1.6 | 0.00 | 0.00 | 0.00 | 99 | 1025.5 |
| 20260502100342 | 11 | 0 | 0.0 | 3.2 | 0.00 | 0.00 | 0.00 | 99 | 1025.6 |
| 20260502091315 | 12 | 340 | 0.0 | 4.8 | 0.00 | 0.00 | 0.00 | 99 | 1025.7 |
| 20260502090813 | 12 | 292 | 3.2 | 4.8 | 0.00 | 0.00 | 0.00 | 99 | 1025.4 |
| 20260502090309 | 12 | 331 | 0.0 | 4.8 | 0.00 | 0.00 | 0.00 | 99 | 1025.5 |
| 20260502071204 | 12 | 28 | 0.0 | 3.2 | 0.00 | 0.00 | 0.00 | 99 | 1025.4 |
| 20260502070703 | 12 | 0 | 0.0 | 0.0 | 0.00 | 0.00 | 0.00 | 99 | 1025.5 |
| 20260502070200 | 12 | 279 | 0.0 | 0.0 | 0.00 | 0.00 | 0.00 | 99 | 1025.4 |
| 20260502065659 | 13 | 345 | 0.0 | 4.8 | 0.00 | 0.00 | 0.00 | 99 | 1025.5 |
| 20260502065155 | 13 | 294 | 1.6 | 6.4 | 0.00 | 0.00 | 0.00 | 99 | 1025.6 |
| 20260502064654 | 13 | 275 | 3.2 | 6.4 | 0.00 | 0.00 | 0.00 | 99 | 1025.7 |
| 20260502064151 | 13 | 282 | 0.0 | 4.8 | 0.00 | 0.00 | 0.00 | 99 | 1025.6 |
| 20260502063649 | 13 | 315 | 3.2 | 4.8 | 0.00 | 0.00 | 0.00 | 99 | 1025.7 |
| 20260502063147 | 12 | 270 | 0.0 | 4.8 | 0.00 | 0.00 | 0.00 | 99 | 1025.6 |
| 20260502062643 | 12 | 291 | 1.6 | 3.2 | 0.00 | 0.00 | 0.00 | 99 | 1025.5 |
| 20260502062141 | 12 | 289 | 0.0 | 3.2 | 0.00 | 0.00 | 0.00 | 99 | 1025.4 |
| 20260502061639 | 12 | 270 | 0.0 | 1.6 | 0.00 | 0.00 | 0.00 | 99 | 1025.6 |
| 20260502061137 | 12 | 340 | 0.0 | 0.0 | 0.00 | 0.00 | 0.00 | 99 | 1025.7 |
| 20260502060636 | 12 | 352 | 0.0 | 0.0 | 0.00 | 0.00 | 0.00 | 99 | 1025.4 |
| 20260502060133 | 12 | 0 | 0.0 | 0.0 | 0.00 | 0.00 | 0.00 | 99 | 1025.4 |
| 20260502055631 | 12 | 0 | 0.0 | 0.0 | 0.00 | 0.00 | 0.00 | 99 | 1025.5 |
| 20260502055129 | 12 | 352 | 0.0 | 0.0 | 0.00 | 0.00 | 0.00 | 99 | 1025.7 |
| 20260502054628 | 11 | 303 | 0.0 | 0.0 | 0.00 | 0.00 | 0.00 | 99 | 1025.8 |
| 20260502054125 | 11 | 303 | 0.0 | 0.0 | 0.00 | 0.00 | 0.00 | 99 | 1025.7 |
| 20260502053622 | 11 | 352 | 0.0 | 1.6 | 0.00 | 0.00 | 0.00 | 99 | 1025.6 |
| 20260502053119 | 12 | 186 | 0.0 | 0.0 | 0.00 | 0.00 | 0.00 | 99 | 1025.6 |
| 20260502052617 | 12 | 186 | 0.0 | 0.0 | 0.00 | 0.00 | 0.00 | 99 | 1025.6 |
| 20260502052115 | 12 | 186 | 0.0 | 0.0 | 0.00 | 0.00 | 0.00 | 99 | 1025.4 |
| 20260502051613 | 12 | 186 | 0.0 | 0.0 | 0.00 | 0.00 | 0.00 | 99 | 1025.8 |
| 20260502051111 | 12 | 186 | 0.0 | 1.6 | 0.00 | 0.00 | 0.00 | 99 | 1025.6 |
| 20260502050607 | 12 | 286 | 0.0 | 1.6 | 0.00 | 0.00 | 0.00 | 99 | 1025.7 |
| 20260502050104 | 12 | 303 | 0.0 | 3.2 | 0.00 | 0.00 | 0.00 | 99 | 1025.6 |
| 20260502045600 | 12 | 106 | 0.0 | 0.0 | 0.00 | 0.00 | 0.00 | 99 | 1025.6 |
| 20260502045057 | 13 | 261 | 0.0 | 0.0 | 0.00 | 0.00 | 0.00 | 99 | 1025.6 |
| 20260502044554 | 12 | 261 | 0.0 | 0.0 | 0.00 | 0.00 | 0.00 | 99 | 1025.7 |
| 20260502044051 | 12 | 261 | 0.0 | 0.0 | 0.00 | 0.00 | 0.00 | 99 | 1025.6 |
| 20260502043548 | 13 | 261 | 0.0 | 0.0 | 0.00 | 0.00 | 0.00 | 99 | 1025.4 |
| 20260502043044 | 13 | 261 | 0.0 | 0.0 | 0.00 | 0.00 | 0.00 | 99 | 1025.5 |
| 20260502042539 | 13 | 90 | 0.0 | 0.0 | 0.00 | 0.00 | 0.00 | 99 | 1025.4 |
| 20260502042037 | 13 | 90 | 0.0 | 0.0 | 0.00 | 0.00 | 0.00 | 99 | 1025.5 |
| 20260502041535 | 12 | 90 | 0.0 | 0.0 | 0.00 | 0.00 | 0.00 | 99 | 1025.5 |
| 20260502041032 | 13 | 90 | 0.0 | 0.0 | 0.00 | 0.00 | 0.00 | 99 | 1025.4 |
| 20260502040528 | 13 | 90 | 0.0 | 0.0 | 0.00 | 0.00 | 0.00 | 99 | 1025.2 |
| 20260502040025 | 13 | 90 | 0.0 | 0.0 | 0.00 | 0.00 | 0.00 | 99 | 1025.1 |
| 20260502035521 | 13 | 82 | 0.0 | 0.0 | 0.00 | 0.00 | 0.00 | 99 | 1025.7 |
| 20260502035019 | 13 | 82 | 0.0 | 0.0 | 0.00 | 0.00 | 0.00 | 99 | 1025.5 |
| 20260502034516 | 13 | 270 | 0.0 | 0.0 | 0.00 | 0.00 | 0.00 | 99 | 1025.4 |
| 20260502034015 | 13 | 270 | 0.0 | 0.0 | 0.00 | 0.00 | 0.00 | 99 | 1025.6 |
| 20260502033513 | 13 | 270 | 0.0 | 0.0 | 0.00 | 0.00 | 0.00 | 99 | 1025.5 |
| 20260502033010 | 14 | 270 | 0.0 | 0.0 | 0.00 | 0.00 | 0.00 | 99 | 1025.5 |
| 20260502032505 | 14 | 270 | 0.0 | 0.0 | 0.00 | 0.00 | 0.00 | 99 | 1025.6 |
| 20260502032003 | 14 | 270 | 0.0 | 0.0 | 0.00 | 0.00 | 0.00 | 99 | 1025.4 |
| 20260502031500 | 14 | 270 | 0.0 | 0.0 | 0.00 | 0.00 | 0.00 | 99 | 1025.5 |
| 20260502030958 | 15 | 270 | 0.0 | 0.0 | 0.00 | 0.00 | 0.00 | 99 | 1025.2 |
| 20260502030456 | 14 | 286 | 1.6 | 1.6 | 0.00 | 0.00 | 0.00 | 99 | 1025.1 |
| 20260502025954 | 15 | 90 | 0.0 | 0.0 | 0.00 | 0.00 | 0.00 | 99 | 1024.9 |
| 20260502025451 | 15 | 90 | 0.0 | 0.0 | 0.00 | 0.00 | 0.00 | 99 | 1024.9 |
| 20260502024949 | 15 | 90 | 0.0 | 0.0 | 0.00 | 0.00 | 0.00 | 99 | 1025.1 |
| 20260502024447 | 15 | 195 | 0.0 | 1.6 | 0.00 | 0.00 | 0.00 | 99 | 1025.2 |
| 20260502023945 | 15 | 99 | 0.0 | 0.0 | 0.00 | 0.00 | 0.00 | 99 | 1025.0 |
| 20260502023442 | 15 | 99 | 0.0 | 0.0 | 0.00 | 0.00 | 0.00 | 99 | 1025.1 |
| 20260502022939 | 15 | 99 | 0.0 | 0.0 | 0.00 | 0.00 | 0.00 | 99 | 1024.9 |
| 20260502022435 | 15 | 99 | 0.0 | 0.0 | 0.00 | 0.00 | 0.00 | 99 | 1024.9 |
| 20260502021932 | 15 | 99 | 0.0 | 0.0 | 0.00 | 0.00 | 0.00 | 99 | 1024.8 |
| 20260502021430 | 15 | 99 | 0.0 | 0.0 | 0.00 | 0.00 | 0.00 | 99 | 1024.7 |
| 20260502020927 | 15 | 99 | 0.0 | 0.0 | 0.00 | 0.00 | 0.00 | 99 | 1024.6 |
| 20260502020425 | 15 | 99 | 0.0 | 0.0 | 0.00 | 0.00 | 0.00 | 99 | 1024.4 |
| 20260502015921 | 15 | 99 | 0.0 | 0.0 | 0.00 | 0.00 | 0.00 | 99 | 1024.2 |
| 20260502015419 | 15 | 99 | 0.0 | 0.0 | 0.00 | 0.00 | 0.00 | 99 | 1024.2 |
| 20260502014915 | 15 | 99 | 0.0 | 0.0 | 0.00 | 0.00 | 0.00 | 99 | 1024.2 |
| 20260502014413 | 15 | 99 | 0.0 | 0.0 | 0.00 | 0.00 | 0.00 | 99 | 1024.2 |
| 20260502013909 | 15 | 99 | 0.0 | 0.0 | 0.00 | 0.00 | 0.00 | 99 | 1023.9 |
| 20260502013404 | 15 | 99 | 0.0 | 0.0 | 0.00 | 0.00 | 0.00 | 99 | 1023.9 |
| 20260502012901 | 15 | 99 | 0.0 | 0.0 | 0.00 | 0.00 | 0.00 | 99 | 1023.6 |
| 20260502012359 | 15 | 99 | 0.0 | 0.0 | 0.00 | 0.00 | 0.00 | 99 | 1023.6 |
| 20260502011856 | 16 | 99 | 0.0 | 0.0 | 0.00 | 0.00 | 0.00 | 99 | 1023.5 |
| 20260502011352 | 16 | 99 | 0.0 | 0.0 | 0.00 | 0.00 | 0.00 | 99 | 1023.4 |
| 20260502010849 | 16 | 99 | 0.0 | 0.0 | 0.00 | 0.00 | 0.00 | 99 | 1023.4 |
| 20260502010346 | 16 | 90 | 0.0 | 0.0 | 0.00 | 0.00 | 0.00 | 99 | 1023.2 |
| 20260502005843 | 16 | 90 | 0.0 | 0.0 | 0.00 | 0.00 | 0.00 | 99 | 1023.3 |
| 20260502005341 | 16 | 90 | 0.0 | 0.0 | 0.00 | 0.00 | 0.00 | 99 | 1023.2 |
| 20260502004838 | 16 | 90 | 0.0 | 0.0 | 0.00 | 0.00 | 0.00 | 99 | 1023.1 |
| 20260502004333 | 16 | 90 | 0.0 | 0.0 | 0.00 | 0.00 | 0.00 | 99 | 1023.2 |
| 20260502003832 | 16 | 90 | 0.0 | 0.0 | 0.00 | 0.00 | 0.00 | 99 | 1023.1 |
| 20260502003328 | 16 | 98 | 0.0 | 1.6 | 0.00 | 0.00 | 0.00 | 99 | 1022.9 |
| 20260502002825 | 16 | 90 | 0.0 | 0.0 | 0.00 | 0.00 | 0.00 | 99 | 1023.0 |
| 20260502002322 | 17 | 90 | 0.0 | 1.6 | 0.00 | 0.00 | 0.00 | 99 | 1023.0 |
| 20260502001819 | 17 | 106 | 0.0 | 0.0 | 0.00 | 0.00 | 0.00 | 99 | 1022.9 |
| 20260502001317 | 17 | 81 | 0.0 | 0.0 | 0.00 | 0.00 | 0.00 | 99 | 1022.7 |
| 20260502000814 | 17 | 203 | 0.0 | 0.0 | 0.00 | 0.00 | 0.00 | 99 | 1022.4 |
| 20260502000312 | 17 | 131 | 0.0 | 3.2 | 0.00 | 0.00 | 0.00 | 99 | 1022.7 |
| 20260501235808 | 17 | 81 | 0.0 | 1.6 | 0.00 | 0.00 | 0.00 | 99 | 1022.4 |
| 20260501235305 | 17 | 98 | 0.0 | 1.6 | 0.00 | 0.00 | 0.00 | 99 | 1022.3 |
| 20260501234759 | 17 | 75 | 0.0 | 3.2 | 0.00 | 0.00 | 0.00 | 99 | 1022.3 |
| 20260501234257 | 17 | 99 | 0.0 | 3.2 | 0.00 | 0.00 | 0.00 | 99 | 1022.3 |
| 20260501233755 | 17 | 96 | 0.0 | 1.6 | 0.00 | 0.00 | 0.00 | 99 | 1022.2 |
| 20260501233252 | 17 | 83 | 0.0 | 1.6 | 0.00 | 0.00 | 0.00 | 99 | 1022.2 |
| 20260501232748 | 17 | 99 | 0.0 | 1.6 | 0.00 | 0.00 | 0.00 | 99 | 1022.2 |
| 20260501232245 | 17 | 106 | 0.0 | 3.2 | 0.00 | 0.00 | 0.00 | 99 | 1022.0 |
| 20260501231743 | 17 | 90 | 0.0 | 3.2 | 0.00 | 0.00 | 0.00 | 99 | 1022.0 |
| 20260501231241 | 17 | 99 | 0.0 | 3.2 | 0.00 | 0.00 | 0.00 | 99 | 1022.0 |
| 20260501230739 | 17 | 106 | 0.0 | 4.8 | 0.00 | 0.00 | 0.00 | 99 | 1021.9 |
| 20260501230237 | 17 | 98 | 1.6 | 3.2 | 0.00 | 0.00 | 0.00 | 99 | 1021.8 |
| 20260501225735 | 17 | 96 | 0.0 | 3.2 | 0.00 | 0.00 | 0.00 | 99 | 1021.8 |
| 20260501225232 | 17 | 84 | 3.2 | 3.2 | 0.00 | 0.00 | 0.00 | 99 | 1021.8 |
| 20260501224728 | 17 | 107 | 0.0 | 3.2 | 0.00 | 0.00 | 0.00 | 99 | 1021.7 |
| 20260501224226 | 17 | 114 | 0.0 | 3.2 | 0.00 | 0.00 | 0.00 | 99 | 1021.9 |
| 20260501223721 | 17 | 106 | 0.0 | 3.2 | 0.00 | 0.00 | 0.00 | 99 | 1021.9 |
| 20260501223218 | 18 | 103 | 0.0 | 1.6 | 0.00 | 0.00 | 0.00 | 99 | 1021.8 |
| 20260501222714 | 17 | 105 | 1.6 | 3.2 | 0.00 | 0.00 | 0.00 | 99 | 1021.8 |
| 20260501222211 | 17 | 90 | 0.0 | 3.2 | 0.00 | 0.00 | 0.00 | 99 | 1022.0 |
| 20260501221708 | 17 | 101 | 0.0 | 3.2 | 0.00 | 0.00 | 0.00 | 99 | 1021.8 |
| 20260501221205 | 17 | 105 | 1.6 | 3.2 | 0.00 | 0.00 | 0.00 | 99 | 1021.8 |
| 20260501220703 | 17 | 99 | 0.0 | 3.2 | 0.00 | 0.00 | 0.00 | 99 | 1021.8 |
| 20260501220200 | 17 | 108 | 0.0 | 4.8 | 0.00 | 0.00 | 0.00 | 99 | 1022.1 |
| 20260501215657 | 18 | 90 | 0.0 | 9.7 | 0.00 | 0.00 | 0.00 | 99 | 1022.0 |
| 20260501215152 | 17 | 103 | 0.0 | 8.0 | 0.00 | 0.00 | 0.00 | 99 | 1021.9 |
| 20260501214647 | 18 | 82 | 1.6 | 4.8 | 0.00 | 0.00 | 0.00 | 99 | 1021.9 |
| 20260501214142 | 18 | 68 | 0.0 | 6.4 | 0.00 | 0.00 | 0.00 | 99 | 1021.7 |
| 20260501213640 | 18 | 139 | 3.2 | 8.0 | 0.00 | 0.00 | 0.00 | 99 | 1021.7 |
| 20260501213136 | 18 | 90 | 3.2 | 4.8 | 0.00 | 0.00 | 0.00 | 99 | 1021.8 |
| 20260501212633 | 18 | 121 | 3.2 | 4.8 | 0.00 | 0.00 | 0.00 | 99 | 1021.9 |
| 20260501212129 | 18 | 110 | 3.2 | 8.0 | 0.00 | 0.00 | 0.00 | 99 | 1021.8 |
| 20260501211626 | 18 | 120 | 0.0 | 6.4 | 0.00 | 0.00 | 0.00 | 99 | 1021.8 |
| 20260501211124 | 18 | 98 | 1.6 | 4.8 | 0.00 | 0.00 | 0.00 | 99 | 1022.1 |
| 20260501210620 | 18 | 126 | 4.8 | 8.0 | 0.00 | 0.00 | 0.00 | 99 | 1022.1 |
| 20260501210117 | 18 | 127 | 4.8 | 6.4 | 0.00 | 0.00 | 0.00 | 99 | 1022.2 |
| 20260501205613 | 18 | 90 | 0.0 | 4.8 | 0.00 | 0.00 | 0.00 | 99 | 1022.5 |
| 20260501205111 | 18 | 15 | 6.4 | 8.0 | 0.00 | 0.00 | 0.00 | 99 | 1022.2 |
| 20260501204607 | 18 | 101 | 4.8 | 8.0 | 0.00 | 0.00 | 0.00 | 99 | 1022.3 |
| 20260501204103 | 17 | 128 | 3.2 | 9.7 | 0.00 | 0.00 | 0.00 | 99 | 1022.5 |
| 20260501203600 | 17 | 157 | 4.8 | 4.8 | 0.00 | 0.00 | 0.00 | 99 | 1022.6 |
| 20260501203058 | 17 | 73 | 3.2 | 4.8 | 0.00 | 0.00 | 0.00 | 99 | 1023.0 |
| 20260501202554 | 17 | 114 | 0.0 | 9.7 | 0.00 | 0.00 | 0.00 | 99 | 1023.0 |
| 20260501202051 | 17 | 131 | 3.2 | 9.7 | 0.00 | 0.00 | 0.00 | 99 | 1023.0 |
| 20260501201548 | 17 | 112 | 4.8 | 4.8 | 0.00 | 0.00 | 0.00 | 99 | 1022.8 |
| 20260501201045 | 17 | 41 | 3.2 | 11.3 | 0.00 | 0.00 | 0.00 | 99 | 1023.1 |
| 20260501200542 | 17 | 58 | 6.4 | 11.3 | 0.00 | 0.00 | 0.00 | 99 | 1022.9 |
| 20260501200039 | 17 | 52 | 14.5 | 17.7 | 0.00 | 0.00 | 0.00 | 99 | 1022.6 |
| 20260501195537 | 18 | 51 | 4.8 | 8.0 | 0.00 | 0.00 | 0.00 | 99 | 1022.4 |
| 20260501195032 | 17 | 78 | 6.4 | 9.7 | 0.00 | 0.00 | 0.00 | 99 | 1022.1 |
| 20260501194527 | 17 | 83 | 0.0 | 12.9 | 0.00 | 0.00 | 0.00 | 99 | 1022.2 |
| 20260501194023 | 17 | 68 | 3.2 | 4.8 | 0.00 | 0.00 | 0.00 | 99 | 1022.4 |
| 20260501193521 | 17 | 22 | 8.0 | 16.1 | 0.00 | 0.00 | 0.00 | 99 | 1022.5 |
| 20260501193020 | 17 | 83 | 1.6 | 9.7 | 0.00 | 0.00 | 0.00 | 99 | 1022.3 |
| 20260501192516 | 17 | 90 | 3.2 | 8.0 | 0.00 | 0.00 | 0.00 | 99 | 1022.4 |
| 20260501192014 | 17 | 140 | 0.0 | 9.7 | 0.00 | 0.00 | 0.00 | 99 | 1022.0 |
| 20260501191511 | 17 | 94 | 4.8 | 8.0 | 0.00 | 0.00 | 0.00 | 99 | 1022.1 |
| 20260501191008 | 17 | 11 | 4.8 | 8.0 | 0.00 | 0.00 | 0.00 | 99 | 1022.4 |
| 20260501190503 | 17 | 29 | 8.0 | 11.3 | 0.00 | 0.00 | 0.00 | 99 | 1022.5 |
| 20260501185959 | 18 | 101 | 4.8 | 9.7 | 0.00 | 0.00 | 0.00 | 99 | 1022.3 |
| 20260501185455 | 18 | 107 | 6.4 | 11.3 | 0.00 | 0.00 | 0.00 | 99 | 1022.0 |
| 20260501184951 | 18 | 110 | 3.2 | 12.9 | 0.00 | 0.00 | 0.00 | 99 | 1022.1 |